Hourly Weather Abay

Today, 24 July, Saturday

Time Temperature Precipitation Wind Pressure Humidity
00:00 +26°C° 0 mm 2 mps 688 mmHg 39%
01:00 +26°C° 0 mm 3 mps 687 mmHg 38%
02:00 +25°C° 0 mm 3 mps 687 mmHg 37%
03:00 +25°C° 0 mm 3 mps 687 mmHg 37%
04:00 +25°C° 0 mm 3 mps 688 mmHg 37%
05:00 +25°C° 0 mm 3 mps 688 mmHg 38%
06:00 +27°C° 0 mm 2 mps 688 mmHg 34%
07:00 +30°C° 0 mm 2 mps 689 mmHg 30%
08:00 +32°C° 0 mm 1 mps 690 mmHg 26%
09:00 +34°C° 0 mm 2 mps 690 mmHg 25%
10:00 +36°C° 0 mm 2 mps 690 mmHg 23%
11:00 +37°C° 0 mm 2 mps 690 mmHg 21%
12:00 +38°C° 0 mm 3 mps 689 mmHg 21%
13:00 +38°C° 0 mm 3 mps 689 mmHg 21%
14:00 +39°C° 0 mm 3 mps 689 mmHg 20%
15:00 +39°C° 0 mm 3 mps 689 mmHg 21%
16:00 +39°C° 0 mm 3 mps 689 mmHg 21%
17:00 +38°C° 0 mm 3 mps 690 mmHg 24%
18:00 +35°C° 0 mm 3 mps 690 mmHg 28%
19:00 +31°C° 0 mm 2 mps 690 mmHg 33%
20:00 +29°C° 0 mm 2 mps 690 mmHg 38%
21:00 +28°C° 0 mm 2 mps 690 mmHg 37%
22:00 +27°C° 0 mm 2 mps 690 mmHg 36%
23:00 +27°C° 0 mm 2 mps 690 mmHg 35%

Tomorrow, 25 July, Sunday

Time Temperature Precipitation Wind Pressure Humidity
00:00 +26°C° 0 mm 3 mps 690 mmHg 32%
01:00 +26°C° 0 mm 3 mps 690 mmHg 29%
02:00 +26°C° 0 mm 3 mps 690 mmHg 26%
03:00 +26°C° 0 mm 2 mps 690 mmHg 25%
04:00 +26°C° 0 mm 2 mps 690 mmHg 25%
05:00 +25°C° 0 mm 2 mps 690 mmHg 24%
06:00 +28°C° 0 mm 2 mps 690 mmHg 22%
07:00 +30°C° 0 mm 1 mps 691 mmHg 21%
08:00 +33°C° 0 mm 1 mps 691 mmHg 19%
09:00 +34°C° 0 mm 1 mps 691 mmHg 19%
10:00 +36°C° 0 mm 2 mps 691 mmHg 18%
11:00 +38°C° 0 mm 2 mps 691 mmHg 17%
12:00 +39°C° 0 mm 2 mps 691 mmHg 17%
13:00 +39°C° 0 mm 3 mps 691 mmHg 17%
14:00 +40°C° 0 mm 3 mps 691 mmHg 16%
15:00 +40°C° 0 mm 3 mps 691 mmHg 17%
16:00 +40°C° 0 mm 3 mps 691 mmHg 17%
17:00 +39°C° 0 mm 3 mps 691 mmHg 18%
18:00 +36°C° 0 mm 3 mps 691 mmHg 22%
19:00 +32°C° 0 mm 2 mps 691 mmHg 26%
20:00 +29°C° 0 mm 2 mps 691 mmHg 30%
21:00 +29°C° 0 mm 2 mps 691 mmHg 31%
22:00 +28°C° 0 mm 2 mps 690 mmHg 31%
23:00 +27°C° 0 mm 2 mps 690 mmHg 32%

Day after tomorrow, 26 July, Monday

Time Temperature Precipitation Wind Pressure Humidity
00:00 +27°C° 0 mm 2 mps 690 mmHg 32%
01:00 +27°C° 0 mm 2 mps 690 mmHg 32%
02:00 +27°C° 0 mm 2 mps 689 mmHg 31%
03:00 +26°C° 0 mm 2 mps 689 mmHg 31%
04:00 +26°C° 0 mm 2 mps 689 mmHg 30%
05:00 +26°C° 0 mm 2 mps 689 mmHg 29%
06:00 +29°C° 0 mm 2 mps 690 mmHg 26%
07:00 +31°C° 0 mm 1 mps 690 mmHg 24%
08:00 +34°C° 0 mm 1 mps 690 mmHg 21%
09:00 +36°C° 0 mm 2 mps 690 mmHg 20%
10:00 +37°C° 0 mm 2 mps 690 mmHg 18%
11:00 +39°C° 0 mm 3 mps 690 mmHg 17%
12:00 +39°C° 0 mm 3 mps 690 mmHg 17%
13:00 +40°C° 0 mm 3 mps 689 mmHg 16%
14:00 +40°C° 0 mm 3 mps 689 mmHg 16%
15:00 +40°C° 0 mm 3 mps 689 mmHg 16%
16:00 +40°C° 0 mm 3 mps 689 mmHg 16%
17:00 +40°C° 0 mm 3 mps 689 mmHg 16%
18:00 +37°C° 0 mm 3 mps 689 mmHg 20%
19:00 +34°C° 0 mm 3 mps 688 mmHg 23%
20:00 +30°C° 0 mm 2 mps 688 mmHg 26%
21:00 +30°C° 0 mm 2 mps 688 mmHg 27%
22:00 +29°C° 0 mm 2 mps 688 mmHg 28%
23:00 +28°C° 0 mm 2 mps 689 mmHg 29%

27 July, Tuesday

Time Temperature Precipitation Wind Pressure Humidity
00:00 +28°C° 0 mm 2 mps 688 mmHg 31%
01:00 +27°C° 0 mm 3 mps 688 mmHg 33%
02:00 +27°C° 0 mm 3 mps 688 mmHg 35%
03:00 +26°C° 0 mm 2 mps 688 mmHg 36%
04:00 +26°C° 0 mm 2 mps 688 mmHg 37%
05:00 +26°C° 0 mm 2 mps 688 mmHg 38%
06:00 +27°C° 0 mm 2 mps 689 mmHg 38%
07:00 +29°C° 0 mm 2 mps 689 mmHg 38%
08:00 +30°C° 0 mm 3 mps 690 mmHg 38%
09:00 +31°C° 0 mm 3 mps 689 mmHg 37%
10:00 +33°C° 0 mm 3 mps 689 mmHg 36%
11:00 +34°C° 0 mm 4 mps 689 mmHg 36%
12:00 +35°C° 0.1 mm 4 mps 689 mmHg 36%
13:00 +35°C° 0.1 mm 4 mps 689 mmHg 35%
14:00 +36°C° 0.1 mm 5 mps 689 mmHg 35%
15:00 +35°C° 0 mm 5 mps 689 mmHg 36%
16:00 +34°C° 0 mm 5 mps 689 mmHg 36%
17:00 +34°C° 0 mm 5 mps 689 mmHg 37%
18:00 +30°C° 0 mm 4 mps 689 mmHg 40%
19:00 +28°C° 0 mm 3 mps 689 mmHg 44%
20:00 +26°C° 0 mm 2 mps 689 mmHg 47%
21:00 +25°C° 0 mm 1 mps 689 mmHg 47%
22:00 +24°C° 0 mm 1 mps 688 mmHg 46%
23:00 +23°C° 0 mm 1 mps 688 mmHg 46%

28 July, Wednesday

Time Temperature Precipitation Wind Pressure Humidity
00:00 +23°C° 0 mm 1 mps 688 mmHg 46%
01:00 +23°C° 0 mm 1 mps 687 mmHg 45%
02:00 +22°C° 0 mm 1 mps 687 mmHg 45%
03:00 +22°C° 0 mm 1 mps 687 mmHg 44%
04:00 +22°C° 0 mm 1 mps 687 mmHg 44%
05:00 +22°C° 0 mm 1 mps 687 mmHg 43%
06:00 +24°C° 0 mm 1 mps 687 mmHg 39%
07:00 +26°C° 0 mm 2 mps 687 mmHg 34%
08:00 +28°C° 0 mm 2 mps 687 mmHg 30%
09:00 +29°C° 0 mm 2 mps 687 mmHg 28%
10:00 +31°C° 0 mm 2 mps 687 mmHg 26%
11:00 +33°C° 0 mm 3 mps 687 mmHg 24%
12:00 +34°C° 0 mm 3 mps 687 mmHg 24%
13:00 +35°C° 0 mm 3 mps 687 mmHg 24%
14:00 +35°C° 0 mm 3 mps 687 mmHg 24%
15:00 +35°C° 0 mm 3 mps 687 mmHg 24%
16:00 +35°C° 0 mm 3 mps 687 mmHg 24%
17:00 +35°C° 0 mm 4 mps 687 mmHg 25%
18:00 +31°C° 0 mm 3 mps 687 mmHg 27%
19:00 +28°C° 0 mm 2 mps 687 mmHg 29%
20:00 +26°C° 0 mm 1 mps 687 mmHg 32%
21:00 +25°C° 0 mm 1 mps 687 mmHg 33%
22:00 +24°C° 0 mm 2 mps 687 mmHg 35%
23:00 +23°C° 0 mm 2 mps 687 mmHg 36%

29 July, Thursday

Time Temperature Precipitation Wind Pressure Humidity
00:00 +23°C° 0 mm 2 mps 687 mmHg 37%
01:00 +23°C° 0 mm 2 mps 686 mmHg 39%
02:00 +23°C° 0 mm 2 mps 686 mmHg 40%
03:00 +23°C° 0 mm 2 mps 686 mmHg 41%
04:00 +21°C° 0 mm 2 mps 686 mmHg 42%
05:00 +21°C° 0 mm 2 mps 686 mmHg 43%
06:00 +24°C° 0 mm 2 mps 686 mmHg 38%
07:00 +26°C° 0 mm 2 mps 687 mmHg 34%
08:00 +28°C° 0 mm 2 mps 687 mmHg 29%
09:00 +29°C° 0 mm 2 mps 687 mmHg 27%
10:00 +31°C° 0 mm 2 mps 687 mmHg 24%
11:00 +34°C° 0 mm 3 mps 687 mmHg 21%
12:00 +34°C° 0 mm 3 mps 687 mmHg 21%
13:00 +35°C° 0 mm 3 mps 687 mmHg 21%
14:00 +35°C° 0 mm 3 mps 687 mmHg 22%
15:00 +35°C° 0 mm 4 mps 687 mmHg 22%
16:00 +35°C° 0 mm 4 mps 687 mmHg 22%
17:00 +34°C° 0 mm 4 mps 687 mmHg 22%
18:00 +32°C° 0 mm 4 mps 687 mmHg 25%
19:00 +28°C° 0 mm 3 mps 688 mmHg 28%
20:00 +25°C° 0 mm 2 mps 688 mmHg 31%
21:00 +25°C° 0.1 mm 2 mps 688 mmHg 34%
22:00 +24°C° 0.1 mm 2 mps 687 mmHg 37%
23:00 +23°C° 0.1 mm 2 mps 687 mmHg 40%
Show more